[[{"header":{"parameterUnit":"m.s-1","parameterCategory":1,"la1":30.2991,"la2":30.254,"lo1":-89.0895,"lo2":-89.0444,"dy":0.0017,"dx":0.0017,"nx":28,"ny":28,"refTime":"2024-08-19T21:00:00:Z","depth":0,"parameterNumber":2,"parameterNumberName":"U-component_of_WINDS"},"data":[0,0,0,0,0,0,0,0,0,0,0,0,0,0,0,0,0,0,0,0,0,0,0,0,0,0,0,0,0,0,0,0,0,0,0,0,0,0,0,0,0,0,0,0,0,0,0,0,0,0,0,0,0,0,0,0,0,0,-0.6378,-0.6379,0,-0.6437,-0.6437,-0.6438,-0.6436,-0.6435,-0.6434,-0.6433,-0.6494,-0.6496,-0.6498,0,0,0,0,0,0,0,0,0,0,0,0,0,-0.6262,-0.6264,-0.6378,-0.6379,-0.6379,-0.6436,-0.6437,-0.6438,-0.6436,-0.6435,-0.6434,-0.6433,-0.6493,-0.6496,-0.6499,0,0,0,0,0,0,0,0,0,0,0,0,0,-0.6316,-0.6265,-0.6378,-0.6385,-0.6386,-0.6436,-0.6437,-0.6438,-0.6436,-0.6435,-0.6434,-0.6433,-0.6492,-0.6495,-0.6499,-0.6545,0,0,-0.651,-0.6511,0,0,0,0,0,0,0,0,-0.6313,-0.632,-0.6383,-0.6385,-0.6386,-0.6428,-0.6419,-0.6474,-0.6436,-0.6417,-0.6433,-0.6432,-0.6473,-0.6478,-0.6491,-0.6548,-0.6551,-0.651,-0.6512,-0.6514,-0.6515,0,0,0,0,0,0,0,-0.6309,-0.6317,-0.6401,-0.6384,-0.6386,-0.6385,-0.6391,-0.6429,-0.6451,-0.6419,-0.6419,-0.6426,-0.6473,-0.6488,-0.6493,-0.6552,-0.651,-0.6513,-0.6515,-0.6517,-0.6647,-0.6648,0,0,0,0,0,0,-0.6304,-0.6314,-0.6399,-0.6403,-0.6346,-0.6388,-0.6395,-0.6416,-0.6451,-0.6455,-0.6427,-0.6425,-0.6483,-0.6489,-0.6495,-0.655,-0.6514,-0.6517,-0.6519,-0.6645,-0.6647,-0.6648,0,0,0,0,0,0,-0.6301,-0.6311,-0.6397,-0.6359,-0.6369,-0.6391,-0.6414,-0.6417,-0.6432,-0.6457,-0.6461,-0.6438,-0.6482,-0.649,-0.6532,-0.6552,-0.6519,-0.6522,-0.6644,-0.6646,-0.6648,-0.6662,0,0,0,0,0,0,-0.6298,-0.631,-0.6329,-0.6359,-0.6371,-0.6434,-0.6416,-0.6419,-0.6438,-0.6437,-0.6468,-0.6472,-0.6482,-0.6527,-0.6536,-0.6557,-0.6525,-0.6642,-0.6645,-0.6647,-0.666,-0.6664,-0.6668,0,0,0,0,0,-0.6294,-0.6331,-0.633,-0.634,-0.6395,-0.6435,-0.6442,-0.6452,-0.644,-0.6458,-0.6473,-0.6471,-0.6548,-0.6531,-0.6541,-0.6563,-0.6641,-0.6644,-0.6647,-0.6658,-0.6663,-0.6668,0,0,0,0,0,0,-0.6304,-0.6335,-0.6334,-0.6383,-0.6406,-0.6435,-0.6458,-0.6458,-0.6485,-0.6483,-0.6494,-0.6501,-0.6543,-0.6557,-0.6538,-0.6609,-0.6593,-0.6598,-0.6598,-0.6603,-0.6607,-0.6603,-0.6528,0,0,0,0,0,-0.6312,-0.6342,-0.6368,-0.6408,-0.6419,-0.6437,-0.6454,-0.646,-0.6484,-0.6494,-0.6513,-0.6537,-0.6566,-0.6586,-0.6614,-0.6661,-0.6667,-0.6681,-0.6685,-0.6688,-0.6693,-0.6716,-0.6722,-0.6658,-0.6658,-0.6658,0,0,-0.6328,-0.6349,-0.6368,-0.641,-0.6429,-0.6459,-0.6445,-0.6478,-0.65,-0.65,-0.654,-0.6554,-0.6581,-0.6626,-0.6646,-0.6639,-0.6711,-0.6692,-0.6695,-0.6697,-0.672,-0.6726,-0.6732,-0.666,-0.666,-0.6659,0,0,-0.6374,-0.6393,-0.6428,-0.6446,-0.6474,-0.6485,-0.6493,-0.6521,-0.653,-0.6571,-0.657,-0.6596,-0.6648,-0.6666,-0.6682,-0.6731,-0.673,-0.674,-0.6762,-0.6785,-0.679,-0.6794,-0.681,-0.6816,-0.6745,-0.6745,-0.6745,0,-0.6391,-0.6437,-0.6446,-0.6478,-0.6496,-0.6495,-0.653,-0.6547,-0.6583,-0.6595,-0.6587,-0.6649,-0.6667,-0.6715,-0.6726,-0.674,-0.6748,-0.6737,-0.6788,-0.6793,-0.6797,-0.6813,-0.6819,-0.6746,-0.6745,-0.6745,-0.6745,0,-0.6455,-0.6487,-0.6511,-0.6545,-0.6565,-0.6599,-0.6612,-0.6631,-0.6634,-0.6645,-0.6686,-0.6707,-0.6739,-0.6751,-0.6754,-0.6798,-0.6793,-0.6786,-0.677,-0.6804,-0.6819,-0.6825,-0.6747,-0.6747,-0.6746,-0.6746,0,0,-0.6511,-0.6547,-0.6556,-0.657,-0.66,-0.6624,-0.6656,-0.6686,-0.6702,-0.6726,-0.6753,-0.6795,-0.6788,-0.6806,-0.6811,-0.6832,-0.6867,-0.6822,-0.6823,-0.6829,-0.6914,-0.6919,-0.6926,-0.6866,-0.6867,-0.6868,-0.6912,0,-0.6558,-0.6616,-0.6623,-0.6674,-0.6702,-0.6701,-0.6728,-0.6749,-0.676,-0.6784,-0.6796,-0.6825,-0.6815,-0.6825,-0.6845,-0.6858,-0.6884,-0.6855,-0.6889,-0.6891,-0.6882,-0.6934,-0.6939,-0.6979,-0.6918,-0.6919,-0.6919,0,-0.6622,-0.6647,-0.67,-0.6723,-0.6735,-0.676,-0.6788,-0.6812,-0.6834,-0.684,-0.6859,-0.6861,-0.6893,-0.6876,-0.6919,-0.6899,-0.6913,-0.6921,-0.6923,-0.6927,-0.6907,-0.6938,-0.6993,-0.6998,-0.6929,-0.6928,-0.6927,0,-0.6656,-0.6702,-0.6739,-0.6752,-0.678,-0.6798,-0.681,-0.6831,-0.6848,-0.6872,-0.6883,-0.691,-0.6925,-0.6945,-0.6953,-0.694,-0.6996,-0.6979,-0.7001,-0.7,-0.7013,-0.7012,-0.707,-0.7023,-0.7022,-0.7022,-0.7022,0,-0.6708,-0.674,-0.6754,-0.6777,-0.6813,-0.682,-0.6855,-0.6867,-0.6885,-0.6909,-0.691,-0.6932,-0.6942,-0.6966,-0.6973,-0.7007,-0.7014,-0.7019,-0.702,-0.7018,-0.7018,-0.7028,-0.7025,-0.7024,-0.7024,-0.7023,-0.7023,0,-0.6752,-0.6763,-0.6803,-0.6826,-0.6832,-0.6857,-0.6876,-0.6898,-0.6907,-0.6937,-0.6945,-0.696,-0.6988,-0.6998,-0.7032,-0.7037,-0.7075,-0.7075,-0.7067,-0.7068,-0.7088,-0.7085,-0.7155,-0.7163,-0.7111,-0.7111,-0.7111,0,-0.6784,-0.6809,-0.6834,-0.685,-0.6863,-0.6889,-0.6905,-0.6913,-0.693,-0.6956,-0.6974,-0.7001,-0.7024,-0.7068,-0.7081,-0.7107,-0.7106,-0.7129,-0.711,-0.7107,-0.7105,-0.7103,-0.7105,-0.7132,-0.7133,-0.7133,-0.7133,0,-0.684,-0.6844,-0.6868,-0.6894,-0.6913,-0.6934,-0.6954,-0.6967,-0.6977,-0.6996,-0.7024,-0.7041,-0.7075,-0.7102,-0.7127,-0.7139,-0.7138,-0.7139,-0.7145,-0.7143,-0.7138,-0.714,-0.7076,-0.7137,-0.7137,-0.7137,-0.7137,-0.7136,-0.6879,-0.69,-0.692,-0.6946,-0.6961,-0.6979,-0.7,-0.7011,-0.7034,-0.7062,-0.7065,-0.7095,-0.7114,-0.7148,-0.7161,-0.7183,-0.7177,-0.7186,-0.7188,-0.719,-0.7191,-0.7134,-0.7188,-0.7188,-0.7188,-0.7188,-0.7188,0,-0.6934,-0.6946,-0.697,-0.6997,-0.7017,-0.7013,-0.7034,-0.7051,-0.7077,-0.7095,-0.7117,-0.7147,-0.7172,-0.7187,-0.7212,-0.7227,-0.7226,-0.7233,-0.7232,-0.7234,-0.7196,-0.7188,-0.7233,-0.7233,-0.7233,-0.7233,-0.7232,-0.7232,-0.6965,-0.6999,-0.7005,-0.7046,-0.7058,-0.7086,-0.7098,-0.7114,-0.7128,-0.7162,-0.7183,-0.7192,-0.7208,-0.7234,-0.7256,-0.7259,-0.7268,-0.7275,-0.7277,-0.7242,-0.7237,-0.7233,-0.7225,-0.7277,-0.7277,-0.7314,-0.7314,-0.7314]},{"header":{"parameterUnit":"m.s-1","parameterCategory":1,"la1":30.2991,"la2":30.254,"lo1":-89.0895,"lo2":-89.0444,"dy":0.0017,"dx":0.0017,"nx":28,"ny":28,"refTime":"2024-08-19T21:00:00:Z","depth":0,"parameterNumber":3,"parameterNumberName":"V-component_of_WINDS"},"data":[0,0,0,0,0,0,0,0,0,0,0,0,0,0,0,0,0,0,0,0,0,0,0,0,0,0,0,0,0,0,0,0,0,0,0,0,0,0,0,0,0,0,0,0,0,0,0,0,0,0,0,0,0,0,0,0,0,0,-3.4774,-3.4773,0,-3.4691,-3.469,-3.4689,-3.4587,-3.4586,-3.4584,-3.4583,-3.4496,-3.4496,-3.4495,0,0,0,0,0,0,0,0,0,0,0,0,0,-3.4842,-3.4842,-3.4774,-3.4773,-3.4772,-3.4691,-3.469,-3.4688,-3.4588,-3.4586,-3.4584,-3.4582,-3.4497,-3.4496,-3.4495,0,0,0,0,0,0,0,0,0,0,0,0,0,-3.4791,-3.4842,-3.4774,-3.4712,-3.4705,-3.4691,-3.469,-3.4688,-3.4588,-3.4586,-3.4583,-3.4581,-3.4497,-3.4496,-3.4495,-3.4535,0,0,-3.4491,-3.449,0,0,0,0,0,0,0,0,-3.4794,-3.4789,-3.4722,-3.4716,-3.4709,-3.4647,-3.4682,-3.4637,-3.4589,-3.4633,-3.4583,-3.458,-3.4548,-3.4543,-3.4532,-3.453,-3.4527,-3.4491,-3.449,-3.4489,-3.4489,0,0,0,0,0,0,0,-3.4798,-3.4792,-3.4741,-3.4721,-3.4713,-3.4687,-3.4677,-3.4673,-3.4605,-3.4628,-3.4621,-3.4613,-3.4544,-3.4534,-3.453,-3.4525,-3.4491,-3.449,-3.4489,-3.4488,-3.455,-3.4552,0,0,0,0,0,0,-3.4811,-3.4796,-3.4743,-3.4738,-3.4747,-3.4688,-3.4677,-3.4669,-3.4604,-3.4592,-3.4615,-3.4608,-3.4537,-3.4531,-3.4526,-3.4567,-3.4489,-3.4488,-3.4488,-3.4547,-3.455,-3.4553,0,0,0,0,0,0,-3.4813,-3.4808,-3.4747,-3.4765,-3.4755,-3.4689,-3.4681,-3.4669,-3.4658,-3.4594,-3.4581,-3.4617,-3.4535,-3.4528,-3.4533,-3.4562,-3.4488,-3.4487,-3.4545,-3.4548,-3.4552,-3.465,0,0,0,0,0,0,-3.4816,-3.4809,-3.4824,-3.4766,-3.4755,-3.4756,-3.4683,-3.4669,-3.4656,-3.4647,-3.4592,-3.4581,-3.4533,-3.4535,-3.4532,-3.4559,-3.4486,-3.4542,-3.4546,-3.455,-3.4644,-3.4656,-3.4667,0,0,0,0,0,-3.4818,-3.4855,-3.4825,-3.482,-3.4772,-3.4758,-3.4751,-3.4695,-3.4659,-3.4673,-3.4632,-3.4583,-3.456,-3.4537,-3.4532,-3.456,-3.4539,-3.4545,-3.455,-3.4638,-3.4654,-3.4667,0,0,0,0,0,0,-3.4918,-3.4846,-3.4812,-3.4832,-3.4802,-3.4741,-3.4757,-3.4713,-3.4692,-3.4684,-3.4615,-3.4603,-3.4616,-3.4588,-3.4563,-3.4594,-3.4542,-3.4547,-3.4611,-3.4626,-3.4637,-3.4643,-3.4485,0,0,0,0,0,-3.4943,-3.4938,-3.4875,-3.4898,-3.4884,-3.4824,-3.4815,-3.4774,-3.474,-3.4727,-3.4686,-3.4654,-3.4639,-3.4631,-3.4614,-3.464,-3.4625,-3.4656,-3.4668,-3.4678,-3.4682,-3.4692,-3.4704,-3.457,-3.457,-3.457,0,0,-3.4993,-3.4953,-3.4954,-3.4917,-3.4889,-3.4884,-3.4813,-3.4812,-3.4807,-3.4726,-3.4728,-3.4697,-3.4657,-3.4672,-3.4676,-3.4649,-3.4716,-3.4685,-3.4693,-3.4692,-3.4698,-3.4711,-3.4722,-3.4574,-3.4573,-3.4573,0,0,-3.5081,-3.5051,-3.5066,-3.5039,-3.4997,-3.4957,-3.496,-3.4906,-3.4882,-3.4883,-3.4821,-3.4815,-3.4792,-3.4765,-3.4748,-3.4825,-3.4779,-3.4822,-3.4883,-3.4893,-3.4903,-3.4912,-3.4938,-3.4948,-3.4827,-3.4827,-3.4827,0,-3.5148,-3.5139,-3.5079,-3.5081,-3.5066,-3.4993,-3.5006,-3.4983,-3.4938,-3.4929,-3.4899,-3.4867,-3.4835,-3.4842,-3.4861,-3.485,-3.4851,-3.4827,-3.4907,-3.4915,-3.4923,-3.4946,-3.4956,-3.4832,-3.4832,-3.4831,-3.4831,0,-3.5223,-3.5218,-3.5235,-3.5193,-3.518,-3.5188,-3.5128,-3.5122,-3.5082,-3.5044,-3.5045,-3.5004,-3.4976,-3.4975,-3.4937,-3.4976,-3.496,-3.492,-3.4867,-3.4942,-3.4963,-3.4971,-3.484,-3.4838,-3.4837,-3.4835,0,0,-3.5372,-3.5296,-3.5303,-3.5283,-3.5231,-3.5225,-3.5229,-3.5203,-3.5198,-3.5169,-3.517,-3.5151,-3.5113,-3.5095,-3.5052,-3.5061,-3.5123,-3.5019,-3.5017,-3.5038,-3.5161,-3.519,-3.5202,-3.5092,-3.5093,-3.5095,-3.5163,0,-3.5449,-3.5452,-3.5398,-3.5415,-3.5409,-3.5339,-3.5342,-3.531,-3.5275,-3.5263,-3.5223,-3.5211,-3.5162,-3.515,-3.5156,-3.5114,-3.5146,-3.5108,-3.509,-3.509,-3.5101,-3.5213,-3.5245,-3.5312,-3.5172,-3.5173,-3.5174,0,-3.554,-3.5516,-3.5533,-3.5479,-3.5475,-3.5479,-3.5449,-3.5439,-3.5401,-3.5374,-3.5353,-3.5305,-3.5303,-3.5254,-3.525,-3.5226,-3.5215,-3.5193,-3.5195,-3.5189,-3.5136,-3.5209,-3.5332,-3.5342,-3.5187,-3.5186,-3.5185,0,-3.5645,-3.5617,-3.5623,-3.5608,-3.5546,-3.555,-3.5524,-3.5483,-3.547,-3.5445,-3.5435,-3.541,-3.5395,-3.5376,-3.5321,-3.5291,-3.5323,-3.527,-3.5299,-3.53,-3.5308,-3.5308,-3.5429,-3.5304,-3.5304,-3.5304,-3.5304,0,-3.5736,-3.5749,-3.5669,-3.5673,-3.5684,-3.5621,-3.5634,-3.5601,-3.5566,-3.5561,-3.5499,-3.5496,-3.5424,-3.5412,-3.5369,-3.5371,-3.5366,-3.5343,-3.5331,-3.5348,-3.535,-3.5338,-3.5332,-3.5306,-3.5306,-3.5305,-3.5305,0,-3.5854,-3.5802,-3.5803,-3.5744,-3.573,-3.5741,-3.5689,-3.5689,-3.565,-3.5644,-3.5639,-3.5577,-3.556,-3.5503,-3.5472,-3.5443,-3.5457,-3.5436,-3.5471,-3.5463,-3.5494,-3.5492,-3.5611,-3.5622,-3.5493,-3.5494,-3.5495,0,-3.5915,-3.5923,-3.5865,-3.5857,-3.5834,-3.5823,-3.5809,-3.5748,-3.5736,-3.5692,-3.5697,-3.5675,-3.5653,-3.5629,-3.558,-3.5555,-3.5531,-3.5575,-3.5527,-3.5542,-3.5529,-3.5529,-3.5528,-3.5585,-3.5586,-3.5588,-3.5589,0,-3.6028,-3.6002,-3.5985,-3.5959,-3.5944,-3.592,-3.5893,-3.589,-3.5821,-3.581,-3.5792,-3.5775,-3.5743,-3.5721,-3.5688,-3.5659,-3.5612,-3.5604,-3.5609,-3.5625,-3.5644,-3.5632,-3.5497,-3.5602,-3.56,-3.5599,-3.5599,-3.5598,-3.6118,-3.6121,-3.6081,-3.6063,-3.6036,-3.6012,-3.6009,-3.5969,-3.5952,-3.5921,-3.5886,-3.5871,-3.5831,-3.5782,-3.5757,-3.5743,-3.5718,-3.5726,-3.5728,-3.573,-3.5737,-3.5648,-3.5737,-3.5737,-3.5736,-3.5736,-3.5736,0,-3.6227,-3.6197,-3.6182,-3.6145,-3.6131,-3.6089,-3.6056,-3.6047,-3.6035,-3.6002,-3.5982,-3.596,-3.5937,-3.5887,-3.586,-3.5858,-3.5836,-3.5853,-3.5852,-3.5845,-3.5762,-3.576,-3.5872,-3.5872,-3.5872,-3.5872,-3.5872,-3.5872,-3.6281,-3.6284,-3.6252,-3.624,-3.621,-3.6195,-3.618,-3.6156,-3.6129,-3.6107,-3.6089,-3.6056,-3.6015,-3.5985,-3.5962,-3.5947,-3.5939,-3.5963,-3.5942,-3.5865,-3.5852,-3.5839,-3.5836,-3.5963,-3.5963,-3.6025,-3.6026,-3.6026]}]]